Hourly Data Report for April 10, 2018

KUGAARUK CLIMATE
NUNAVUT
Current Station Operator: ECCC - MSC

68°32'15.060" N
89°47'47.020" W
15.80 m
2303094
71407
NBB

Download Data

Hourly Data (April 2018)
Hourly Data Report for April 10, 2018
TIME
LST
Temp Definition
°C
Dew Point Definition
°C
Rel Hum Definition
%
Precip. Amount Definition
mm

Wind Dir Definition
10's deg

Wind Spd Definition
km/h
Visibility Definition
km
Stn Press Definition
kPa
Hmdx Definition


Wind Chill Definition


Weather Definition


00:00 -31.6 -35.4 69 0.0 24 20   100.96   -45 LegendNANA
01:00 -31.0 -34.8 69 0.0 24 27   100.90   -46 LegendNANA
02:00 -31.1 -34.8 70 0.0 24 23   100.86   -45 LegendNANA
03:00 -30.9 -34.5 70 0.0 23 31   100.78   -47 LegendNANA
04:00 -30.7 -34.5 70 0.0 23 34   100.73   -47 LegendNANA
05:00 -30.6 -34.7 67 0.0 23 31   100.70   -47 LegendNANA
06:00 -30.4 -34.8 66 0.0 23 31   100.64   -46 LegendNANA
07:00 -30.2 -34.8 64 0.0 23 31   100.60   -46 LegendNANA
08:00 -29.5 -34.7 61 0.0 22 25   100.57   -44 LegendNANA
09:00 -29.0 -34.3 60 0.0 23 25   100.53   -43 LegendNANA
10:00 -28.1 -33.5 60 0.0 23 27   100.48   -42 LegendNANA
11:00 -27.2 -32.8 59 0.0 24 25   100.47   -41 LegendNANA
12:00 -26.4 -31.8 60 0.0 23 25   100.48   -40 LegendNANA
13:00 -25.9 -31.7 58 0.0 23 16   100.51   -37 LegendNANA
14:00 -25.5 -31.3 58 0.0 24 14   100.54   -35 LegendNANA
15:00 -25.4 -31.3 58 0.0 24 11   100.58   -34 LegendNANA
16:00 -25.6 -31.2 59 0.0 24 10   100.61   -34 LegendNANA
17:00 -26.2 -31.5 61 0.0 24 8   100.64   -34 LegendNANA
18:00 -28.0 -33.1 62 0.0 23 5   100.66   -33 LegendNANA
19:00 -29.9 -33.9 68 0.0 7 3   100.70   -33 LegendNANA
20:00 -30.9 -34.5 71 0.0   0   100.71     LegendNANA
21:00 -33.1 -36.9 69 0.0 10 3   100.74   -37 LegendNANA
22:00 -32.4 -36.0 71 0.0 4 2   100.75   -35 LegendNANA
23:00 -33.4 -36.9 71 0.0   0   100.77     LegendNANA

Notes on Data Quality.

Legend

  • E = Estimated
  • M = Missing
  • NA = Not Available*
  • [empty] = Indicates an unobserved value
Date modified: